Starlink 31561

operational
NORAD ID: 59352 Int'l Des: 2024-060 Owner: SPXS Country: US Constellation: starlink
LEOCIRCULAR

About Starlink 31561

Description loading...

Live Position

Loading 3D Globe...

Upcoming Passes

Altitude History

Altitude vs Time

uPlot chart will show altitude changes over time

Two-Line Element Set

1 59352U 24060E 26036.16598782 -.00000727 00000-0 -16928-4 0 9997
2 59352 42.9994 83.1134 0000602 272.4935 87.5848 15.27566190105090
Epoch: Feb 5, 2026 • Age: 16 hours

Current Status

Altitude 484.9 km
Velocity 7.63 km/s
Sub-Earth Point 35.03°N, 52.89°E
Launch Date Mar 31, 2024
Age 1.8 years
Type internet

Technical Details

Classification Payload
Mass 730.00 kg
Dry Mass 700.00 kg
Total Mass 730.00 kg
Length 0.30 m
Diameter 4.10 m
Span 29.00 m
Shape Box + pan
Manufacturer SPXS
Bus Type Starlink V2M
Phase Status In Orbit
Owner/State SPXS/US

Large Constellations

Loading constellations...